星链-35484(STARLINK-35484)

导读

STARLINK-35484是美国于2025年10月8日发射的星链卫星,隶属于SpaceX公司的星链星座项目。星链系统旨在为全球提供高速低延迟卫星互联网服务,该卫星入轨后,将进一步扩展星链星座的覆盖范围与服务能力,助力实现全球网络覆盖,尤其为偏远地区提供网络接入支持。

Basic Information
目录编号:
65923
目录名称:
STARLINK-35484
国际标识:
2025-225P
轨道中心:
EARTH
卫星名称:
星链-35484
卫星全名:
星链-35484(STARLINK-35484)
卫星状态:
在轨 (已飞行331 天)
发射日期:
2025-10-08 UTC
国别 :
美国 (US)
星等 :
--
Orbit Information
数据来源 国际轨道数据 AOE轨道数据
星历时间 2026-09-03T20:10:06+0800
19小时前
查看轨道信息
2026-09-04T02:00:00+0800
14小时前
查看轨道信息
半长轴 6840.847km 6840.865km
偏心率 0.000088 0.0000431
轨道倾角 53.159° 53.158°
近地点辐角 104.194° 59.231°
升交点赤经 56.834° 55.699°
平近点角 255.916° 203.823°
近地点 462.108km 462.433km
远地点 463.312km 463.023km
周期 93.848分钟 93.848分钟
每日圈数 15.343979 15.343918
Detailed Information
固有亮度:
5
最大亮度:
2.5
卫星平台:
Starlink V1.0
覆盖范围:
全球
运营商:
太空探索技术公司
运营商所在国:
美国
制造商(研发单位):
太空探索技术公司
制造商所在国:
美国
使用方式:
暂无
Satellite Introduction
Starlink 计划是 SpaceX 推出的全球卫星互联网项目,通过发射低轨道卫星,为全球尤其是偏远地区提供高速、低延迟的互联网服务。自 2019 年起,Starlink 已部署数千颗卫星,旨在缩小全球数字鸿沟,推动互联网普及。该项目还为军事、航空等行业提供通信支持,带来广泛经济效益。
2D Orbit Map
3D Orbit Map
Orbit Altitude Analysis Chart
Orbit Inclination Analysis Chart
Orbit Comprehensive Analysis Chart
View Comprehensive Chart
Conjunction Data List
Event ID Objects TCA Miss Dist (km) Collision Risk Probability Collision Risk Index (CRI) Action
CDM_260905-033304-004206-592321
2026-09-05T
03:33:53+0000
1.762 km
极远距离
3.817869E-6 低风险 0.47